Regional Weather Roundup
Issued by NWS

Home | Current Version | Previous Version | Text Only | Print | Product List | Glossary On
Versions: 1 2 3 4 5 6 7 8 9 10 11 12 13 14 15 16 17 18 19 20 21 22 23 24 25 26 27 28 29 30 31 32 33 34 35 36 37 38 39 40 41 42 43 44 45 46 47 48 49 50
000
ASUS43 KDTX 250801
RWRMI
MICHIGAN HOURLY REGIONAL WEATHER ROUNDUP
NATIONAL WEATHER SERVICE DETROIT/PONTIAC MI
300 AM EST SUN FEB 25 2018

NOTE: "FAIR" INDICATES FEW OR NO CLOUDS BELOW 12,000 FEET WITH NO
SIGNIFICANT WEATHER AND/OR OBSTRUCTION TO VISIBILITY.

MIZ047>049-052>055-059>063-066>070-074>076-081>083-250900-
SOUTHEAST LOWER MICHIGAN

CITY           SKY/WX    TMP DP  RH WIND       PRES   REMARKS
ADRIAN         LGT RAIN  36  36 100 SE6       29.56F VSB 1/2 WCI  31
ALMA           CLOUDY    38  38 100 SE7       29.46F FOG     WCI  32
ANN ARBOR      FOG       41  41 100 E9        29.54F VSB 1/2
BAD AXE        CLOUDY    35  33  93 SE14G23   29.55F WCI  25
CARO           CLOUDY    38  36  94 SE12G24   29.50F WCI  30
DETROIT CITY   CLOUDY    38  37  97 SE8       29.58F FOG     WCI  32
DETROIT        FOG       40  39  97 VRB3      29.56F VSB 1/2
FLINT          CLOUDY    39  39 100 SE16      29.50F WCI  30
GROSSE ILE     CLOUDY    41  40  97 E8        29.55F FOG
HILLSDALE      RAIN      39  37  93 SE8       29.50F VSB 1   WCI  34
HOWELL         FOG       39  39 100 SE17G25   29.50F VSB 1/2 WCI  30

CITY           SKY/WX    TMP DP  RH WIND       PRES   REMARKS
JACKSON        FOG       40  40 100 SE9       29.49F VSB 1/4 WCI  34
LAMBERTVILLE   FOG       38  37  97 E3        29.56F VSB 1/2
LANSING        FOG       40  40 100 SE18G26   29.47F VSB 1   WCI  31
LAPEER         CLOUDY    40  39  97 SE10G20   29.54F WCI  33
MASON          FOG       41  38  89 SE14G20   29.48F VSB 1/2
MONROE         FOG       38  37  93 E9G17     29.56F VSB 1/2 WCI  32
MT. CLEMENS    CLOUDY    39  39 100 SE13      29.57F WCI  32
PONTIAC        FOG       37  37 100 SE14      29.53F VSB 1/4 WCI  28
PORT HOPE        N/A     35  32  88 SE23      29.54F WCI  23
PORT HURON     CLOUDY    41  37  87 SE10G22   29.59F
TRI CITIES     CLOUDY    38  36  92 SE8       29.49F FOG     WCI  32
MIDLAND        DRIZZLE   36  35  96 E9        29.48F WCI  29
TROY           CLOUDY    39  37  95 E6        29.59F FOG     WCI  34
SAGINAW HB     CLOUDY    37  36  93 SE14      29.49F WCI  29
$$
MIZ043>046-050>051-056>058-064>065-071>073-077>080-250900-
SOUTHWEST LOWER MICHIGAN

CITY           SKY/WX    TMP DP  RH WIND       PRES   REMARKS
BATTLE CREEK   LGT RAIN  44  44 100 S15G21    29.46F FOG
BENTON HARBOR  CLOUDY    50  47  89 SW24G35   29.47R
BIG RAPIDS     LGT SNOW  33  32  94 SE10      29.41F WCI  25
COLDWATER      LGT RAIN  45  45 100 SE14G22   29.48F
FREMONT        LGT RAIN  38  35  90 SE10      29.41S WCI  30
HOLLAND        LGT RAIN  46  45  96 S14G29    29.42S FOG
GRAND RAPIDS   LGT RAIN  42  41  96 SE16      29.42F FOG
IONIA          LGT RAIN  40  40 100 SE18G25   29.44F WCI  31
KALAMAZOO      LGT RAIN  45  43  93 SE9       29.45F FOG
LUDINGTON      RAIN      37  37 100 S14G26    29.37R WCI  29
MARSHALL       LGT RAIN  44  43  98 SE10G20   29.46F
MOUNT PLEASANT CLOUDY    36  34  94 E9        29.45F FOG     WCI  29
MUSKEGON       LGT RAIN  42  39  89 SE14      29.41S FOG
SOUTH HAVEN    DRIZZLE   48  46  93 S16G23    29.45R
$$
MIZ016>042-250900-
NORTHERN LOWER MICHIGAN

CITY           SKY/WX    TMP DP  RH WIND       PRES   REMARKS
ALPENA         RAIN      33  32  96 SE16G24   29.56F FOG     WCI  23
BEAVER ISLAND  LGT SNOW  33  32  96 E13       29.37F WCI  24
BELLAIRE       CLOUDY    36  34  94 SE13G23   29.38F WCI  27
CADILLAC       MIX PCPN  32  32  99 SE7       29.39F WCI  26
CHARLEVOIX     FLURRIES  34  34 100 E16G23    29.39F WCI  24
FRANKFORT      CLOUDY    39  37  94 S14G26    29.32F WCI  31
GAYLORD        FRZ RAIN  32  32 100 SE16G30   29.42F FOG     WCI  21
GRAYLING       LGTSLEET  33  32  98 SE16      29.44F FOG     WCI  22
HARBOR SPRINGS LGT SNOW  32  32 100 E14       29.41F WCI  22
HOUGHTON LAKE  LGT RAIN  33  32  96 SE16G29   29.44F FOG     WCI  23
MANISTEE       HVY RAIN  36  35  96 SE12G28   29.35F WCI  28
OSCODA         MIX PCPN  33  31  94 SE8       29.55F WCI  26
PELLSTON       RAIN      33  31  92 E20G29    29.45F FOG     WCI  21
ROGERS CITY    LGT RAIN  32  31  94 SE10G24   29.56F WCI  24
TRAVERSE CITY  CLOUDY    37  33  85 SE12G25   29.36F WCI  29
$$
MIZ007>008-015-250900-
EASTERN UPPER MICHIGAN

CITY           SKY/WX    TMP DP  RH WIND       PRES   REMARKS
KINROSS        LGT SNOW  28  26  92 E28G40    29.49F VSB 1   WCI  13
MACKINAC ISLAN LGT SNOW  32  30  92 E28G46    29.48F WCI  18
NEWBERRY       LGT SNOW  32  31  97 E31G43    29.38F WCI  17
S. S. MARIE    LGT SNOW  33  26  75 SE22G40   29.52F WCI  21
MUNISING         N/A     33  32  96 S13G25    29.36F WCI  24
$$
MIZ004>006-011>014-085-250900-
CENTRAL UPPER MICHIGAN

CITY           SKY/WX    TMP DP  RH WIND       PRES   REMARKS
MANISTIQUE     LGT SNOW  31  30  94 E14G28    29.37F WCI  21
ESCANABA       LGT SNOW  31  30  96 E9        29.39F FOG     WCI  23
MENOMINEE      LGT SNOW  34  32  93 E5        29.38F VSB 1   WCI  30
SAWYER-GWINN   HVY SNOW  29  27  93 S12G116   29.35F VSB 1/4 WCI  19
$$
MIZ001>003-009>011-084-250900-
WESTERN UPPER MICHIGAN

CITY           SKY/WX    TMP DP  RH WIND       PRES   REMARKS
IRON MOUNTAIN  SNOW      30  27  88 SE9       29.33F VSB 1/2 WCI  22
HOUGHTON       SNOW      28  25  88 E15       29.33F VSB 1/2 WCI  16
COPPER HARBOR    N/A     30  27  88 S8        29.39F WCI  22
IRONWOOD       LGT SNOW  27  27 100 CALM      29.30F FOG
$$

ABBREVIATIONS USED IN REMARKS
   TC - TEMPERATURE IN CELSIUS
  WCI - WIND CHILL INDEX
   HX - HEAT INDEX
  VSB - VISIBILITY





USA.gov is the U.S. government's official web portal to all federal, state and local government web resources and services.